20060227,000026,1992918,34.270000,-120.789500,NaN,13.140,33.180,39.170,  NaN,NaN,1.639, NaN, NaN,14.600, NaN,   NaN,13.70,1014.16,86.00,NaN,2.0,NaN,11.2,NaN,142.8,NaN,21.7,NaN,NaN,1.639,NaN,135.0,NaN,NaN,NaN,2,10.3,000023,   NaN,134.2,     NaN,      NaN,NaN,13.2,NaN, NaN,0.257,NaN,NaN, NaN, NaN
20060227,000056,1992948,34.269000,-120.788300,NaN,13.140,33.170,39.170,  NaN,NaN,1.653, NaN, NaN,14.600, NaN,   NaN,13.70,1014.10,85.70,NaN,3.0,NaN,13.4,NaN,142.0,NaN,26.1,NaN,NaN,1.653,NaN,137.0,NaN,NaN,NaN,2,10.3,000053,   NaN,136.5,     NaN,      NaN,NaN,13.3,NaN, NaN,0.249,NaN,NaN, NaN, NaN
20060227,000126,1992978,34.267800,-120.787200,NaN,13.150,33.180,39.180,  NaN,NaN,1.645, NaN, NaN,14.600, NaN,   NaN,13.70,1014.09,85.80,NaN,0.0,NaN,13.9,NaN,137.1,NaN,27.1,NaN,NaN,1.645,NaN,136.0,NaN,NaN,NaN,2,10.2,000123,   NaN,134.1,     NaN,      NaN,NaN,13.0,NaN, NaN,0.339,NaN,NaN, NaN, NaN
20060227,000156,1993008,34.266800,-120.786000,NaN,13.160,33.180,39.190,  NaN,NaN,1.660, NaN, NaN,14.600, NaN,   NaN,13.70,1014.02,85.60,NaN,355.0,NaN,13.4,NaN,131.5,NaN,26.0,NaN,NaN,1.660,NaN,136.0,NaN,NaN,NaN,2,10.2,000153,   NaN,134.3,     NaN,      NaN,NaN,13.0,NaN, NaN,0.249,NaN,NaN, NaN, NaN
20060227,000226,1993038,34.265800,-120.784800,NaN,13.160,33.180,39.200,  NaN,NaN,1.661, NaN, NaN,14.700, NaN,   NaN,13.70,1014.02,85.30,NaN,354.0,NaN,13.9,NaN,128.6,NaN,27.1,NaN,NaN,1.661,NaN,137.0,NaN,NaN,NaN,2,10.1,000223,   NaN,137.0,     NaN,      NaN,NaN,13.2,NaN, NaN,0.248,NaN,NaN, NaN, NaN
20060227,000256,1993068,34.264800,-120.783700,NaN,13.160,33.190,39.200,  NaN,NaN,1.685, NaN, NaN,14.600, NaN,   NaN,13.70,1014.05,85.50,NaN,2.0,NaN,13.9,NaN,126.6,NaN,27.1,NaN,NaN,1.685,NaN,135.0,NaN,NaN,NaN,2,10.2,000253,   NaN,133.7,     NaN,      NaN,NaN,13.0,NaN, NaN,0.261,NaN,NaN, NaN, NaN
20060227,000326,1993098,34.263800,-120.782300,NaN,13.160,33.190,39.200,  NaN,NaN,1.648, NaN, NaN,14.600, NaN,   NaN,13.70,1013.95,85.50,NaN,355.0,NaN,14.1,NaN,136.7,NaN,27.4,NaN,NaN,1.648,NaN,136.0,NaN,NaN,NaN,2,10.1,000323,   NaN,136.5,     NaN,      NaN,NaN,13.0,NaN, NaN,0.285,NaN,NaN, NaN, NaN
20060227,000356,1993128,34.262800,-120.781300,NaN,13.160,33.180,39.200,  NaN,NaN,1.657, NaN, NaN,14.600, NaN,   NaN,13.70,1013.91,85.30,NaN,5.0,NaN,14.5,NaN,127.3,NaN,28.3,NaN,NaN,1.657,NaN,135.0,NaN,NaN,NaN,2,10.1,000353,   NaN,133.9,     NaN,      NaN,NaN,12.9,NaN, NaN,0.266,NaN,NaN, NaN, NaN
20060227,000426,1993158,34.261800,-120.780000,NaN,13.180,33.180,39.220,  NaN,NaN,1.668, NaN, NaN,14.600, NaN,   NaN,13.70,1013.97,85.60,NaN,1.0,NaN,13.3,NaN,125.0,NaN,25.8,NaN,NaN,1.668,NaN,135.0,NaN,NaN,NaN,2,10.2,000423,   NaN,134.7,     NaN,      NaN,NaN,13.1,NaN, NaN,0.263,NaN,NaN, NaN, NaN
20060227,000456,1993188,34.260800,-120.778800,NaN,13.190,33.180,39.220,  NaN,NaN,1.687, NaN, NaN,14.600, NaN,   NaN,13.70,1013.91,85.50,NaN,354.0,NaN,15.3,NaN,129.2,NaN,29.8,NaN,NaN,1.687,NaN,137.0,NaN,NaN,NaN,2,10.1,000453,   NaN,136.0,     NaN,      NaN,NaN,13.1,NaN, NaN,0.259,NaN,NaN, NaN, NaN
20060227,000526,1993218,34.259800,-120.777700,NaN,13.190,33.180,39.230,  NaN,NaN,1.742, NaN, NaN,14.600, NaN,   NaN,13.70,1013.97,85.30,NaN,1.0,NaN,14.9,NaN,133.6,NaN,29.0,NaN,NaN,1.742,NaN,134.0,NaN,NaN,NaN,2,10.1,000523,   NaN,133.9,     NaN,      NaN,NaN,13.0,NaN, NaN,0.730,NaN,NaN, NaN, NaN
20060227,000556,1993248,34.258800,-120.776500,NaN,13.190,33.180,39.230,  NaN,NaN,1.708, NaN, NaN,14.700, NaN,   NaN,13.70,1013.95,85.20,NaN,358.0,NaN,13.5,NaN,127.1,NaN,26.2,NaN,NaN,1.708,NaN,135.0,NaN,NaN,NaN,2,10.2,000553,   NaN,135.4,     NaN,      NaN,NaN,13.1,NaN, NaN,0.399,NaN,NaN, NaN, NaN
20060227,000626,1993278,34.257800,-120.775300,NaN,13.190,33.190,39.230,  NaN,NaN,1.738, NaN, NaN,14.700, NaN,   NaN,13.90,1013.78,85.20,NaN,352.0,NaN,13.1,NaN,127.5,NaN,25.4,NaN,NaN,1.738,NaN,137.0,NaN,NaN,NaN,2,10.2,000623,   NaN,137.4,     NaN,      NaN,NaN,13.2,NaN, NaN,0.279,NaN,NaN, NaN, NaN
20060227,000656,1993308,34.256800,-120.774200,NaN,13.180,33.190,39.220,  NaN,NaN,1.756, NaN, NaN,14.700, NaN,   NaN,13.90,1013.83,85.20,NaN,353.0,NaN,15.0,NaN,135.6,NaN,29.2,NaN,NaN,1.756,NaN,135.0,NaN,NaN,NaN,2,10.2,000653,   NaN,133.0,     NaN,      NaN,NaN,12.8,NaN, NaN,0.272,NaN,NaN, NaN, NaN
20060227,000726,1993338,34.255800,-120.772800,NaN,13.180,33.180,39.220,  NaN,NaN,1.764, NaN, NaN,14.600, NaN,   NaN,13.90,1013.82,85.30,NaN,355.0,NaN,13.9,NaN,124.5,NaN,27.1,NaN,NaN,1.764,NaN,135.0,NaN,NaN,NaN,2,10.2,000723,   NaN,134.3,     NaN,      NaN,NaN,13.1,NaN, NaN,0.261,NaN,NaN, NaN, NaN
20060227,000756,1993368,34.254800,-120.771700,NaN,13.170,33.190,39.210,  NaN,NaN,1.776, NaN, NaN,14.600, NaN,   NaN,13.90,1013.89,85.10,NaN,352.0,NaN,13.1,NaN,128.7,NaN,25.4,NaN,NaN,1.776,NaN,139.0,NaN,NaN,NaN,2,10.2,000753,   NaN,137.3,     NaN,      NaN,NaN,13.1,NaN, NaN,0.264,NaN,NaN, NaN, NaN
20060227,000826,1993398,34.253800,-120.770500,NaN,13.160,33.180,39.200,  NaN,NaN,1.789, NaN, NaN,14.600, NaN,   NaN,13.90,1013.63,84.80,NaN,352.0,NaN,13.9,NaN,125.7,NaN,27.1,NaN,NaN,1.789,NaN,136.0,NaN,NaN,NaN,2,10.3,000823,   NaN,134.2,     NaN,      NaN,NaN,12.7,NaN, NaN,0.276,NaN,NaN, NaN, NaN
20060227,000856,1993428,34.252800,-120.769300,NaN,13.170,33.180,39.200,  NaN,NaN,2.120, NaN, NaN,14.600, NaN,   NaN,13.90,1013.76,84.80,NaN,354.0,NaN,15.1,NaN,126.6,NaN,29.4,NaN,NaN,2.120,NaN,135.0,NaN,NaN,NaN,2,10.2,000853,   NaN,134.6,     NaN,      NaN,NaN,13.0,NaN, NaN,0.420,NaN,NaN, NaN, NaN
20060227,000926,1993458,34.251800,-120.768200,NaN,13.160,33.180,39.200,  NaN,NaN,1.717, NaN, NaN,14.600, NaN,   NaN,13.90,1013.72,84.80,NaN,354.0,NaN,13.3,NaN,128.4,NaN,25.9,NaN,NaN,1.717,NaN,136.0,NaN,NaN,NaN,2,10.3,000923,   NaN,135.5,     NaN,      NaN,NaN,13.0,NaN, NaN,0.267,NaN,NaN, NaN, NaN
20060227,000956,1993488,34.250800,-120.767000,NaN,13.160,33.180,39.190,  NaN,NaN,1.714, NaN, NaN,14.600, NaN,   NaN,13.90,1013.68,84.80,NaN,354.0,NaN,14.2,NaN,126.0,NaN,27.6,NaN,NaN,1.714,NaN,136.0,NaN,NaN,NaN,2,10.3,000953,   NaN,134.3,     NaN,      NaN,NaN,13.1,NaN, NaN,0.272,NaN,NaN, NaN, NaN
20060227,001026,1993518,34.249800,-120.765800,NaN,13.150,33.180,39.190,  NaN,NaN,1.697, NaN, NaN,14.600, NaN,   NaN,13.90,1013.65,84.80,NaN,354.0,NaN,15.1,NaN,125.4,NaN,29.4,NaN,NaN,1.697,NaN,136.0,NaN,NaN,NaN,2,10.3,001023,   NaN,136.3,     NaN,      NaN,NaN,13.1,NaN, NaN,0.295,NaN,NaN, NaN, NaN
20060227,001056,1993548,34.248700,-120.764700,NaN,13.140,33.180,39.180,  NaN,NaN,1.687, NaN, NaN,14.600, NaN,   NaN,13.90,1013.67,84.80,NaN,1.0,NaN,14.2,NaN,128.6,NaN,27.6,NaN,NaN,1.687,NaN,137.0,NaN,NaN,NaN,2,10.3,001053,   NaN,135.5,     NaN,      NaN,NaN,13.0,NaN, NaN,0.271,NaN,NaN, NaN, NaN
20060227,001126,1993578,34.247700,-120.763500,NaN,13.160,33.180,39.190,  NaN,NaN,1.688, NaN, NaN,14.600, NaN,   NaN,14.00,1013.58,84.80,NaN,353.0,NaN,13.0,NaN,131.9,NaN,25.3,NaN,NaN,1.688,NaN,137.0,NaN,NaN,NaN,2,10.3,001123,   NaN,134.7,     NaN,      NaN,NaN,13.2,NaN, NaN,0.273,NaN,NaN, NaN, NaN
20060227,001156,1993608,34.246700,-120.762300,NaN,13.150,33.180,39.190,  NaN,NaN,1.665, NaN, NaN,14.600, NaN,   NaN,14.00,1013.50,84.60,NaN,354.0,NaN,16.4,NaN,126.0,NaN,31.9,NaN,NaN,1.665,NaN,136.0,NaN,NaN,NaN,2,10.3,001153,   NaN,135.1,     NaN,      NaN,NaN,13.2,NaN, NaN,0.268,NaN,NaN, NaN, NaN
20060227,001226,1993638,34.245700,-120.761000,NaN,13.160,33.180,39.190,  NaN,NaN,1.674, NaN, NaN,14.600, NaN,   NaN,14.00,1013.55,84.40,NaN,354.0,NaN,15.2,NaN,124.6,NaN,29.5,NaN,NaN,1.674,NaN,135.0,NaN,NaN,NaN,2,10.1,001223,   NaN,134.1,     NaN,      NaN,NaN,13.1,NaN, NaN,0.280,NaN,NaN, NaN, NaN
20060227,001256,1993668,34.244700,-120.759800,NaN,13.160,33.180,39.190,  NaN,NaN,1.658, NaN, NaN,14.600, NaN,   NaN,14.00,1013.56,84.70,NaN,1.0,NaN,13.5,NaN,135.0,NaN,26.3,NaN,NaN,1.658,NaN,137.0,NaN,NaN,NaN,2,10.2,001253,   NaN,135.0,     NaN,      NaN,NaN,13.2,NaN, NaN,0.255,NaN,NaN, NaN, NaN
20060227,001326,1993698,34.243700,-120.758700,NaN,13.160,33.180,39.200,  NaN,NaN,1.675, NaN, NaN,14.600, NaN,   NaN,14.00,1013.49,84.60,NaN,351.0,NaN,15.3,NaN,123.3,NaN,29.7,NaN,NaN,1.675,NaN,137.0,NaN,NaN,NaN,2,10.2,001323,   NaN,135.7,     NaN,      NaN,NaN,13.0,NaN, NaN,0.258,NaN,NaN, NaN, NaN
20060227,001356,1993728,34.242700,-120.757500,NaN,13.170,33.180,39.200,  NaN,NaN,1.675, NaN, NaN,14.600, NaN,   NaN,13.90,1013.62,84.20,NaN,354.0,NaN,16.1,NaN,127.3,NaN,31.3,NaN,NaN,1.675,NaN,136.0,NaN,NaN,NaN,2,10.1,001353,   NaN,136.3,     NaN,      NaN,NaN,12.9,NaN, NaN,0.257,NaN,NaN, NaN, NaN
20060227,001426,1993758,34.241700,-120.756300,NaN,13.180,33.170,39.210,  NaN,NaN,1.679, NaN, NaN,14.600, NaN,   NaN,14.00,1013.70,84.80,NaN,354.0,NaN,13.2,NaN,128.0,NaN,25.8,NaN,NaN,1.679,NaN,136.0,NaN,NaN,NaN,2,10.0,001423,   NaN,135.4,     NaN,      NaN,NaN,13.0,NaN, NaN,0.262,NaN,NaN, NaN, NaN
20060227,001456,1993788,34.240700,-120.755200,NaN,13.190,33.180,39.220,  NaN,NaN,1.657, NaN, NaN,14.600, NaN,   NaN,14.00,1013.64,84.80,NaN,355.0,NaN,14.0,NaN,123.2,NaN,27.1,NaN,NaN,1.657,NaN,135.0,NaN,NaN,NaN,2,10.1,001453,   NaN,134.1,     NaN,      NaN,NaN,12.9,NaN, NaN,0.362,NaN,NaN, NaN, NaN
20060227,001526,1993818,34.239700,-120.754000,NaN,13.190,33.180,39.220,  NaN,NaN,1.689, NaN, NaN,14.700, NaN,   NaN,13.90,1013.48,84.70,NaN,351.0,NaN,13.0,NaN,125.6,NaN,25.2,NaN,NaN,1.689,NaN,136.0,NaN,NaN,NaN,2,10.1,001523,   NaN,135.4,     NaN,      NaN,NaN,13.0,NaN, NaN,0.261,NaN,NaN, NaN, NaN
20060227,001556,1993848,34.238700,-120.752800,NaN,13.190,33.180,39.230,  NaN,NaN,1.723, NaN, NaN,14.700, NaN,   NaN,14.00,1013.52,84.80,NaN,353.0,NaN,13.3,NaN,124.5,NaN,25.9,NaN,NaN,1.723,NaN,136.0,NaN,NaN,NaN,2,10.1,001553,   NaN,136.1,     NaN,      NaN,NaN,13.1,NaN, NaN,0.263,NaN,NaN, NaN, NaN
20060227,001626,1993878,34.237700,-120.751700,NaN,13.200,33.180,39.230,  NaN,NaN,1.778, NaN, NaN,14.600, NaN,   NaN,14.00,1013.73,84.90,NaN,355.0,NaN,13.1,NaN,126.2,NaN,25.6,NaN,NaN,1.778,NaN,135.0,NaN,NaN,NaN,2,10.1,001623,   NaN,133.0,     NaN,      NaN,NaN,12.9,NaN, NaN,0.266,NaN,NaN, NaN, NaN
20060227,001656,1993908,34.236700,-120.750500,NaN,13.220,33.180,39.250,  NaN,NaN,1.850, NaN, NaN,14.600, NaN,   NaN,13.90,1013.62,84.80,NaN,355.0,NaN,15.4,NaN,124.9,NaN,29.9,NaN,NaN,1.850,NaN,135.0,NaN,NaN,NaN,2,10.2,001653,   NaN,134.1,     NaN,      NaN,NaN,12.9,NaN, NaN,0.346,NaN,NaN, NaN, NaN
20060227,001726,1993938,34.235700,-120.749300,NaN,13.230,33.180,39.260,  NaN,NaN,1.875, NaN, NaN,14.700, NaN,   NaN,13.90,1013.63,84.90,NaN,358.0,NaN,15.4,NaN,129.1,NaN,29.9,NaN,NaN,1.875,NaN,136.0,NaN,NaN,NaN,2,10.2,001723,   NaN,135.7,     NaN,      NaN,NaN,13.1,NaN, NaN,0.275,NaN,NaN, NaN, NaN
20060227,001756,1993968,34.234700,-120.748200,NaN,13.240,33.180,39.270,  NaN,NaN,1.926, NaN, NaN,14.600, NaN,   NaN,14.00,1013.54,85.10,NaN,355.0,NaN,13.5,NaN,127.3,NaN,26.3,NaN,NaN,1.926,NaN,134.0,NaN,NaN,NaN,2,10.1,001753,   NaN,133.9,     NaN,      NaN,NaN,13.1,NaN, NaN,0.318,NaN,NaN, NaN, NaN
20060227,001826,1993998,34.233700,-120.746800,NaN,13.250,33.180,39.290,  NaN,NaN,1.942, NaN, NaN,14.700, NaN,   NaN,14.00,1013.70,84.90,NaN,353.0,NaN,13.0,NaN,127.9,NaN,25.2,NaN,NaN,1.942,NaN,137.0,NaN,NaN,NaN,2,10.2,001823,   NaN,136.3,     NaN,      NaN,NaN,13.0,NaN, NaN,0.319,NaN,NaN, NaN, NaN
20060227,001856,1994028,34.232700,-120.745700,NaN,13.260,33.180,39.290,  NaN,NaN,1.995, NaN, NaN,14.700, NaN,   NaN,14.00,1013.62,85.30,NaN,352.0,NaN,13.8,NaN,119.9,NaN,26.9,NaN,NaN,1.995,NaN,136.0,NaN,NaN,NaN,2,10.2,001853,   NaN,136.4,     NaN,      NaN,NaN,13.0,NaN, NaN,0.284,NaN,NaN, NaN, NaN
20060227,001926,1994058,34.231700,-120.744500,NaN,13.270,33.180,39.300,  NaN,NaN,1.990, NaN, NaN,14.700, NaN,   NaN,14.00,1013.65,85.30,NaN,352.0,NaN,13.0,NaN,120.0,NaN,25.2,NaN,NaN,1.990,NaN,135.0,NaN,NaN,NaN,2,10.2,001923,   NaN,133.9,     NaN,      NaN,NaN,12.5,NaN, NaN,0.284,NaN,NaN, NaN, NaN
20060227,001956,1994088,34.230700,-120.743300,NaN,13.270,33.180,39.300,  NaN,NaN,2.022, NaN, NaN,14.700, NaN,   NaN,14.00,1013.66,85.10,NaN,353.0,NaN,14.0,NaN,125.3,NaN,27.2,NaN,NaN,2.022,NaN,137.0,NaN,NaN,NaN,2,10.1,001953,   NaN,136.4,     NaN,      NaN,NaN,13.0,NaN, NaN,0.297,NaN,NaN, NaN, NaN
20060227,002026,1994118,34.229700,-120.742200,NaN,13.280,33.190,39.310,  NaN,NaN,2.025, NaN, NaN,14.700, NaN,   NaN,13.90,1013.81,85.10,NaN,358.0,NaN,15.6,NaN,128.9,NaN,30.3,NaN,NaN,2.025,NaN,137.0,NaN,NaN,NaN,2,10.3,002023,   NaN,135.6,     NaN,      NaN,NaN,13.0,NaN, NaN,0.286,NaN,NaN, NaN, NaN
20060227,002056,1994148,34.228700,-120.741000,NaN,13.270,33.190,39.310,  NaN,NaN,2.044, NaN, NaN,14.700, NaN,   NaN,13.90,1013.74,85.20,NaN,354.0,NaN,13.4,NaN,124.2,NaN,26.1,NaN,NaN,2.044,NaN,134.0,NaN,NaN,NaN,2,10.3,002053,   NaN,132.4,     NaN,      NaN,NaN,13.1,NaN, NaN,0.295,NaN,NaN, NaN, NaN
20060227,002126,1994178,34.227700,-120.739800,NaN,13.270,33.190,39.310,  NaN,NaN,2.095, NaN, NaN,14.700, NaN,   NaN,13.90,1013.72,85.30,NaN,351.0,NaN,14.8,NaN,128.7,NaN,28.7,NaN,NaN,2.095,NaN,136.0,NaN,NaN,NaN,2,10.3,002123,   NaN,136.7,     NaN,      NaN,NaN,13.2,NaN, NaN,0.290,NaN,NaN, NaN, NaN
20060227,002156,1994208,34.226500,-120.738700,NaN,13.270,33.200,39.320,  NaN,NaN,2.229, NaN, NaN,14.700, NaN,   NaN,13.90,1013.75,85.30,NaN,354.0,NaN,13.9,NaN,127.9,NaN,27.0,NaN,NaN,2.229,NaN,138.0,NaN,NaN,NaN,2,10.2,002153,   NaN,136.1,     NaN,      NaN,NaN,13.1,NaN, NaN,0.299,NaN,NaN, NaN, NaN
20060227,002226,1994238,34.225500,-120.737500,NaN,13.270,33.200,39.320,  NaN,NaN,2.198, NaN, NaN,14.700, NaN,   NaN,13.90,1013.85,85.30,NaN,354.0,NaN,14.4,NaN,130.6,NaN,27.9,NaN,NaN,2.198,NaN,134.0,NaN,NaN,NaN,2,10.3,002223,   NaN,133.2,     NaN,      NaN,NaN,13.0,NaN, NaN,0.312,NaN,NaN, NaN, NaN
20060227,002256,1994268,34.224500,-120.736200,NaN,13.270,33.210,39.330,  NaN,NaN,2.246, NaN, NaN,14.700, NaN,   NaN,13.90,1013.86,85.10,NaN,355.0,NaN,14.7,NaN,125.4,NaN,28.5,NaN,NaN,2.246,NaN,135.0,NaN,NaN,NaN,2,10.3,002253,   NaN,135.1,     NaN,      NaN,NaN,13.1,NaN, NaN,0.310,NaN,NaN, NaN, NaN
20060227,002326,1994298,34.223500,-120.735000,NaN,13.290,33.210,39.340,  NaN,NaN,2.407, NaN, NaN,14.700, NaN,   NaN,13.90,1013.83,85.50,NaN,354.0,NaN,13.4,NaN,129.5,NaN,26.1,NaN,NaN,2.407,NaN,137.0,NaN,NaN,NaN,2,10.3,002323,   NaN,136.2,     NaN,      NaN,NaN,12.9,NaN, NaN,0.308,NaN,NaN, NaN, NaN
20060227,002356,1994328,34.222500,-120.733800,NaN,13.280,33.230,39.350,  NaN,NaN,2.433, NaN, NaN,14.700, NaN,   NaN,13.90,1013.75,85.60,NaN,354.0,NaN,14.6,NaN,130.2,NaN,28.3,NaN,NaN,2.433,NaN,134.0,NaN,NaN,NaN,2,10.2,002353,   NaN,133.3,     NaN,      NaN,NaN,12.9,NaN, NaN,0.456,NaN,NaN, NaN, NaN
20060227,002426,1994358,34.221500,-120.732700,NaN,13.250,33.230,39.330,  NaN,NaN,2.444, NaN, NaN,14.700, NaN,   NaN,13.90,1013.84,85.50,NaN,355.0,NaN,13.8,NaN,127.7,NaN,26.9,NaN,NaN,2.444,NaN,136.0,NaN,NaN,NaN,2,10.3,002423,   NaN,134.3,     NaN,      NaN,NaN,13.1,NaN, NaN,0.319,NaN,NaN, NaN, NaN
20060227,002456,1994388,34.220500,-120.731300,NaN,13.240,33.230,39.320,  NaN,NaN,2.364, NaN, NaN,14.700, NaN,   NaN,13.90,1013.90,85.70,NaN,0.0,NaN,11.1,NaN,126.5,NaN,21.6,NaN,NaN,2.364,NaN,136.0,NaN,NaN,NaN,2,10.3,002453,   NaN,135.6,     NaN,      NaN,NaN,13.2,NaN, NaN,0.311,NaN,NaN, NaN, NaN
20060227,002526,1994418,34.219500,-120.730200,NaN,13.230,33.240,39.330,  NaN,NaN,2.451, NaN, NaN,14.700, NaN,   NaN,13.90,1013.87,85.60,NaN,355.0,NaN,14.0,NaN,127.4,NaN,27.3,NaN,NaN,2.451,NaN,136.0,NaN,NaN,NaN,2,10.3,002523,   NaN,134.5,     NaN,      NaN,NaN,13.0,NaN, NaN,0.323,NaN,NaN, NaN, NaN
20060227,002556,1994448,34.218500,-120.729000,NaN,13.210,33.250,39.320,  NaN,NaN,2.480, NaN, NaN,14.700, NaN,   NaN,13.90,1013.85,85.60,NaN,0.0,NaN,13.8,NaN,130.0,NaN,26.8,NaN,NaN,2.480,NaN,133.0,NaN,NaN,NaN,2,10.4,002553,   NaN,132.6,     NaN,      NaN,NaN,13.0,NaN, NaN,0.320,NaN,NaN, NaN, NaN
20060227,002626,1994478,34.217500,-120.727700,NaN,13.210,33.250,39.320,  NaN,NaN,2.502, NaN, NaN,14.600, NaN,   NaN,13.90,1013.82,85.30,NaN,355.0,NaN,12.9,NaN,127.4,NaN,25.0,NaN,NaN,2.502,NaN,135.0,NaN,NaN,NaN,2,10.2,002623,   NaN,135.9,     NaN,      NaN,NaN,13.3,NaN, NaN,0.326,NaN,NaN, NaN, NaN
20060227,002656,1994508,34.216500,-120.726500,NaN,13.220,33.250,39.330,  NaN,NaN,2.469, NaN, NaN,14.600, NaN,   NaN,13.90,1013.85,85.50,NaN,0.0,NaN,14.2,NaN,130.1,NaN,27.6,NaN,NaN,2.469,NaN,137.0,NaN,NaN,NaN,2,10.3,002653,   NaN,136.8,     NaN,      NaN,NaN,13.0,NaN, NaN,0.325,NaN,NaN, NaN, NaN
20060227,002726,1994538,34.215500,-120.725300,NaN,13.210,33.270,39.330,  NaN,NaN,2.467, NaN, NaN,14.600, NaN,   NaN,13.70,1013.83,85.60,NaN,353.0,NaN,14.5,NaN,119.2,NaN,28.3,NaN,NaN,2.467,NaN,136.0,NaN,NaN,NaN,2,10.3,002723,   NaN,134.1,     NaN,      NaN,NaN,12.9,NaN, NaN,0.327,NaN,NaN, NaN, NaN
20060227,002756,1994568,34.214500,-120.724200,NaN,13.180,33.280,39.320,  NaN,NaN,2.421, NaN, NaN,14.600, NaN,   NaN,13.70,1013.85,85.60,NaN,355.0,NaN,13.9,NaN,125.4,NaN,27.1,NaN,NaN,2.421,NaN,134.0,NaN,NaN,NaN,2,10.3,002753,   NaN,133.8,     NaN,      NaN,NaN,13.0,NaN, NaN,0.329,NaN,NaN, NaN, NaN
20060227,002826,1994598,34.213500,-120.722800,NaN,13.150,33.280,39.300,  NaN,NaN,2.448, NaN, NaN,14.600, NaN,   NaN,13.70,1013.85,85.50,NaN,355.0,NaN,14.8,NaN,128.4,NaN,28.8,NaN,NaN,2.448,NaN,136.0,NaN,NaN,NaN,2,10.3,002823,   NaN,136.4,     NaN,      NaN,NaN,13.3,NaN, NaN,0.363,NaN,NaN, NaN, NaN
20060227,002856,1994628,34.212500,-120.721700,NaN,13.140,33.290,39.290,  NaN,NaN,2.411, NaN, NaN,14.600, NaN,   NaN,13.90,1013.93,85.60,NaN,354.0,NaN,13.2,NaN,125.7,NaN,25.7,NaN,NaN,2.411,NaN,136.0,NaN,NaN,NaN,2,10.1,002853,   NaN,135.6,     NaN,      NaN,NaN,13.1,NaN, NaN,0.323,NaN,NaN, NaN, NaN
20060227,002926,1994658,34.211500,-120.720500,NaN,13.110,33.300,39.270,  NaN,NaN,2.335, NaN, NaN,14.600, NaN,   NaN,13.70,1014.08,85.50,NaN,355.0,NaN,13.4,NaN,134.3,NaN,26.1,NaN,NaN,2.335,NaN,132.0,NaN,NaN,NaN,2,10.2,002923,   NaN,132.9,     NaN,      NaN,NaN,12.9,NaN, NaN,0.324,NaN,NaN, NaN, NaN
20060227,002956,1994688,34.210500,-120.719200,NaN,13.080,33.320,39.260,  NaN,NaN,2.240, NaN, NaN,14.600, NaN,   NaN,13.90,1013.92,85.50,NaN,354.0,NaN,12.9,NaN,129.6,NaN,25.2,NaN,NaN,2.240,NaN,135.0,NaN,NaN,NaN,2,10.3,002953,   NaN,136.5,     NaN,      NaN,NaN,13.2,NaN, NaN,0.317,NaN,NaN, NaN, NaN
20060227,003026,1994718,34.209500,-120.718000,NaN,13.030,33.320,39.220,  NaN,NaN,2.244, NaN, NaN,14.500, NaN,   NaN,13.90,1013.98,85.30,NaN,354.0,NaN,13.8,NaN,127.2,NaN,26.8,NaN,NaN,2.244,NaN,137.0,NaN,NaN,NaN,2,10.3,003023,   NaN,136.8,     NaN,      NaN,NaN,13.0,NaN, NaN,0.317,NaN,NaN, NaN, NaN
20060227,003056,1994748,34.208500,-120.716800,NaN,13.010,33.310,39.200,  NaN,NaN,2.162, NaN, NaN,14.500, NaN,   NaN,13.90,1013.99,85.20,NaN,354.0,NaN,13.8,NaN,127.7,NaN,26.8,NaN,NaN,2.162,NaN,136.0,NaN,NaN,NaN,2,10.4,003053,   NaN,135.9,     NaN,      NaN,NaN,12.9,NaN, NaN,0.318,NaN,NaN, NaN, NaN
20060227,003126,1994778,34.207500,-120.715700,NaN,12.980,33.330,39.190,  NaN,NaN,2.063, NaN, NaN,14.500, NaN,   NaN,13.90,1013.81,85.10,NaN,353.0,NaN,12.8,NaN,126.5,NaN,24.9,NaN,NaN,2.063,NaN,136.0,NaN,NaN,NaN,2,10.4,003123,   NaN,136.7,     NaN,      NaN,NaN,13.1,NaN, NaN,0.313,NaN,NaN, NaN, NaN
20060227,003156,1994808,34.206500,-120.714500,NaN,12.960,33.320,39.160,  NaN,NaN,2.015, NaN, NaN,14.500, NaN,   NaN,13.90,1013.91,85.20,NaN,352.0,NaN,12.2,NaN,125.3,NaN,23.7,NaN,NaN,2.015,NaN,136.0,NaN,NaN,NaN,2,10.4,003153,   NaN,135.4,     NaN,      NaN,NaN,13.0,NaN, NaN,0.311,NaN,NaN, NaN, NaN
20060227,003226,1994838,34.205500,-120.713200,NaN,12.920,33.330,39.140,  NaN,NaN,2.049, NaN, NaN,14.500, NaN,   NaN,13.90,1013.91,85.20,NaN,355.0,NaN,13.2,NaN,127.6,NaN,25.6,NaN,NaN,2.049,NaN,136.0,NaN,NaN,NaN,2,10.4,003223,   NaN,136.0,     NaN,      NaN,NaN,13.1,NaN, NaN,0.314,NaN,NaN, NaN, NaN
20060227,003256,1994868,34.204300,-120.712000,NaN,12.900,33.330,39.110,  NaN,NaN,1.994, NaN, NaN,14.400, NaN,   NaN,13.90,1013.97,85.10,NaN,352.0,NaN,12.5,NaN,127.5,NaN,24.4,NaN,NaN,1.994,NaN,137.0,NaN,NaN,NaN,2,10.6,003253,   NaN,136.2,     NaN,      NaN,NaN,13.0,NaN, NaN,0.313,NaN,NaN, NaN, NaN
20060227,003326,1994898,34.203300,-120.710800,NaN,12.890,33.320,39.100,  NaN,NaN,2.100, NaN, NaN,14.400, NaN,   NaN,13.90,1013.92,84.90,NaN,353.0,NaN,14.4,NaN,126.0,NaN,28.0,NaN,NaN,2.100,NaN,136.0,NaN,NaN,NaN,2,10.6,003323,   NaN,135.6,     NaN,      NaN,NaN,12.9,NaN, NaN,0.328,NaN,NaN, NaN, NaN
20060227,003356,1994928,34.202300,-120.709700,NaN,12.880,33.330,39.100,  NaN,NaN,2.084, NaN, NaN,14.400, NaN,   NaN,13.90,1013.89,84.80,NaN,354.0,NaN,13.7,NaN,129.1,NaN,26.6,NaN,NaN,2.084,NaN,136.0,NaN,NaN,NaN,2,10.7,003353,   NaN,136.0,     NaN,      NaN,NaN,12.9,NaN, NaN,0.314,NaN,NaN, NaN, NaN
20060227,003426,1994958,34.201200,-120.708300,NaN,12.880,33.330,39.090,  NaN,NaN,2.078, NaN, NaN,14.300, NaN,   NaN,13.90,1013.91,84.70,NaN,355.0,NaN,14.0,NaN,127.5,NaN,27.3,NaN,NaN,2.078,NaN,137.0,NaN,NaN,NaN,2,10.6,003423,   NaN,135.9,     NaN,      NaN,NaN,13.1,NaN, NaN,0.322,NaN,NaN, NaN, NaN
20060227,003456,1994988,34.200200,-120.707200,NaN,12.880,33.330,39.090,  NaN,NaN,2.141, NaN, NaN,14.400, NaN,   NaN,13.90,1013.95,84.70,NaN,352.0,NaN,12.8,NaN,123.1,NaN,24.8,NaN,NaN,2.141,NaN,137.0,NaN,NaN,NaN,2,10.6,003453,   NaN,136.0,     NaN,      NaN,NaN,12.9,NaN, NaN,0.320,NaN,NaN, NaN, NaN
20060227,003526,1995018,34.199000,-120.706000,NaN,12.880,33.330,39.090,  NaN,NaN,2.178, NaN, NaN,14.400, NaN,   NaN,13.90,1013.86,84.80,NaN,352.0,NaN,14.8,NaN,128.4,NaN,28.8,NaN,NaN,2.178,NaN,137.0,NaN,NaN,NaN,2,10.7,003523,   NaN,136.3,     NaN,      NaN,NaN,12.9,NaN, NaN,0.323,NaN,NaN, NaN, NaN
20060227,003556,1995048,34.198000,-120.704700,NaN,12.870,33.330,39.090,  NaN,NaN,2.149, NaN, NaN,14.400, NaN,   NaN,13.90,1013.81,84.80,NaN,352.0,NaN,13.1,NaN,124.7,NaN,25.4,NaN,NaN,2.149,NaN,136.0,NaN,NaN,NaN,2,10.6,003553,   NaN,136.0,     NaN,      NaN,NaN,13.1,NaN, NaN,0.330,NaN,NaN, NaN, NaN
20060227,003626,1995078,34.196800,-120.703500,NaN,12.860,33.340,39.080,  NaN,NaN,2.151, NaN, NaN,14.300, NaN,   NaN,13.90,1013.88,84.60,NaN,353.0,NaN,12.5,NaN,126.6,NaN,24.4,NaN,NaN,2.151,NaN,137.0,NaN,NaN,NaN,2,10.6,003623,   NaN,135.4,     NaN,      NaN,NaN,13.1,NaN, NaN,0.322,NaN,NaN, NaN, NaN
20060227,003656,1995108,34.195800,-120.702300,NaN,12.830,33.340,39.060,  NaN,NaN,2.204, NaN, NaN,14.300, NaN,   NaN,13.90,1013.85,84.70,NaN,354.0,NaN,13.5,NaN,125.8,NaN,26.2,NaN,NaN,2.204,NaN,136.0,NaN,NaN,NaN,2,10.7,003653,   NaN,135.8,     NaN,      NaN,NaN,13.2,NaN, NaN,0.317,NaN,NaN, NaN, NaN
20060227,003726,1995138,34.194800,-120.701000,NaN,12.820,33.340,39.050,  NaN,NaN,2.191, NaN, NaN,14.300, NaN,   NaN,13.90,1013.87,84.60,NaN,347.0,NaN,14.2,NaN,128.4,NaN,27.6,NaN,NaN,2.191,NaN,137.0,NaN,NaN,NaN,2,10.7,003723,   NaN,136.6,     NaN,      NaN,NaN,13.0,NaN, NaN,0.317,NaN,NaN, NaN, NaN
20060227,003756,1995168,34.193700,-120.699800,NaN,12.810,33.340,39.040,  NaN,NaN,2.161, NaN, NaN,14.300, NaN,   NaN,13.90,1013.82,84.70,NaN,354.0,NaN,13.0,NaN,122.3,NaN,25.2,NaN,NaN,2.161,NaN,137.0,NaN,NaN,NaN,2,10.5,003753,   NaN,135.2,     NaN,      NaN,NaN,13.0,NaN, NaN,0.312,NaN,NaN, NaN, NaN
20060227,003826,1995198,34.192700,-120.698700,NaN,12.800,33.340,39.030,  NaN,NaN,2.136, NaN, NaN,14.300, NaN,   NaN,13.90,1014.01,84.70,NaN,351.0,NaN,12.5,NaN,128.2,NaN,24.3,NaN,NaN,2.136,NaN,137.0,NaN,NaN,NaN,2,10.5,003823,   NaN,135.4,     NaN,      NaN,NaN,13.2,NaN, NaN,0.316,NaN,NaN, NaN, NaN
20060227,003856,1995228,34.191700,-120.697500,NaN,12.780,33.340,39.020,  NaN,NaN,2.125, NaN, NaN,14.300, NaN,   NaN,13.70,1013.88,84.80,NaN,353.0,NaN,11.8,NaN,129.0,NaN,23.0,NaN,NaN,2.125,NaN,138.0,NaN,NaN,NaN,2,10.5,003853,   NaN,138.0,     NaN,      NaN,NaN,13.1,NaN, NaN,0.320,NaN,NaN, NaN, NaN
20060227,003926,1995258,34.190500,-120.696300,NaN,12.770,33.340,39.000,  NaN,NaN,2.102, NaN, NaN,14.200, NaN,   NaN,13.70,1013.97,85.10,NaN,355.0,NaN,13.4,NaN,123.2,NaN,26.0,NaN,NaN,2.102,NaN,137.0,NaN,NaN,NaN,2,10.4,003923,   NaN,135.6,     NaN,      NaN,NaN,12.8,NaN, NaN,0.311,NaN,NaN, NaN, NaN
20060227,003956,1995288,34.189500,-120.695200,NaN,12.740,33.340,38.980,  NaN,NaN,2.107, NaN, NaN,14.300, NaN,   NaN,13.70,1013.90,85.20,NaN,1.0,NaN,12.9,NaN,124.7,NaN,25.1,NaN,NaN,2.107,NaN,135.0,NaN,NaN,NaN,2,10.4,003953,   NaN,134.7,     NaN,      NaN,NaN,13.0,NaN, NaN,0.303,NaN,NaN, NaN, NaN